Weather History for KCOM - May, 2013

Change the Weather History Date:

Sunday, May 26, 2013

  Actual Average (KABI) Record (KABI)
Temperature  
Mean Temperature 79 °F 76 °F  
Max Temperature 89 °F 87 °F 99 °F (1896)
Min Temperature 69 °F 64 °F 48 °F (1901)
Degree Days  
Heating Degree Days 0 0  
Month to date heating degree days 13  
Since 1 July heating degree days 2555  
Cooling Degree Days 14 11  
Month to date cooling degree days 209  
Year to date cooling degree days 342  
Growing Degree Days 29 (Base 50)    
Moisture  
Dew Point 64 °F    
Average Humidity 66    
Maximum Humidity 90    
Minimum Humidity 35    
Precipitation  
Precipitation 0.00 in 0.13 in 2.07 in (1914)
Month to date precipitation 2.55  
Year to date precipitation 8.31  
Sea Level Pressure  
Sea Level Pressure 30.01 in    
Wind  
Wind Speed 10 mph (South)    
Max Wind Speed 17 mph    
Max Gust Speed 24 mph    
Visibility 10 miles    
Events      
T = Trace of Precipitation, MM = Missing Value Source: NWS Daily Summary

Daily Weather History Graph

Daily Weather History Graph

Search for Another Location

Airport or City:

Trip Planner

Search our weather history database for the weather conditions in past years. The results will help you decide how hot, cold, wet, or windy it might be!

Date:

Astronomy

May. 26, 2013 Rise Set
Actual Time 6:34 AM CDT 8:35 PM CDT
Civil Twilight 6:07 AM CDT 9:02 PM CDT
Nautical Twilight 5:33 AM CDT 9:36 PM CDT
Astronomical Twilight 4:58 AM CDT 10:11 PM CDT
Moon 10:25 PM CDT (5/26) 8:04 AM CDT (5/26)
Length of Visible Light 14h 55m
Length of Day
14h 00m
Waning Gibbous, 96% of the Moon is Illuminated
May 26
Waning Gibbous
May 31
Last Quarter
Jun 8
New
Jun 16
First Quarter
Jun 23
Full

Hourly Weather History & Observations

Time (CDT) Temp. Heat Index Dew Point Humidity Pressure Visibility Wind Dir Wind Speed Gust Speed Precip Events Conditions
12:15 AM 70.7 °F - 64.4 °F 80% 30.09 in 10.0 mi SSE 6.9 mph - N/A   Clear
12:35 AM 70.0 °F - 64.6 °F 83% 30.08 in 10.0 mi SSE 9.2 mph - N/A   Clear
12:55 AM 69.8 °F - 64.8 °F 84% 30.08 in 10.0 mi SSE 6.9 mph - N/A   Scattered Clouds
1:15 AM 69.4 °F - 64.9 °F 86% 30.08 in 10.0 mi South 3.5 mph - N/A   Scattered Clouds
1:35 AM 69.4 °F - 65.1 °F 86% 30.08 in 10.0 mi South 3.5 mph - N/A   Mostly Cloudy
1:55 AM 69.6 °F - 65.3 °F 86% 30.09 in 10.0 mi South 3.5 mph - N/A   Overcast
2:15 AM 69.6 °F - 65.5 °F 87% 30.08 in 10.0 mi South 5.8 mph - N/A   Overcast
2:35 AM 69.3 °F - 65.5 °F 88% 30.08 in 10.0 mi South 4.6 mph - N/A   Mostly Cloudy
2:55 AM 69.3 °F - 65.7 °F 88% 30.07 in 10.0 mi SSE 5.8 mph - N/A   Mostly Cloudy
3:15 AM 69.3 °F - 65.8 °F 89% 30.06 in 10.0 mi South 5.8 mph - N/A   Mostly Cloudy
3:35 AM 69.3 °F - 66.2 °F 90% 30.05 in 10.0 mi South 6.9 mph - N/A   Scattered Clouds
3:55 AM 69.4 °F - 66.2 °F 89% 30.04 in 10.0 mi South 6.9 mph - N/A   Scattered Clouds
4:15 AM 69.6 °F - 66.2 °F 89% 30.03 in 10.0 mi South 10.4 mph - N/A   Scattered Clouds
4:35 AM 69.8 °F - 66.4 °F 89% 30.03 in 10.0 mi South 11.5 mph - N/A   Scattered Clouds
4:55 AM 69.8 °F - 66.4 °F 89% 30.01 in 10.0 mi SSE 12.7 mph 17.3 mph N/A   Mostly Cloudy
5:15 AM 69.8 °F - 66.6 °F 89% 30.01 in 10.0 mi South 13.8 mph - N/A   Scattered Clouds
5:35 AM 69.8 °F - 66.6 °F 89% 30.00 in 10.0 mi SSE 16.1 mph - N/A   Scattered Clouds
5:55 AM 69.8 °F - 66.7 °F 90% 30.00 in 10.0 mi SSE 16.1 mph 21.9 mph N/A   Mostly Cloudy
6:15 AM 69.8 °F - 66.7 °F 90% 30.00 in 10.0 mi SSE 16.1 mph 24.2 mph N/A   Overcast
6:35 AM 69.8 °F - 66.7 °F 90% 29.99 in 10.0 mi SSE 17.3 mph 21.9 mph N/A   Overcast
6:55 AM 70.0 °F - 66.7 °F 89% 29.99 in 10.0 mi SSE 13.8 mph 21.9 mph N/A   Overcast
7:15 AM 70.7 °F - 67.1 °F 88% 30.00 in 10.0 mi SSE 13.8 mph 21.9 mph N/A   Overcast
7:35 AM 71.2 °F - 67.1 °F 87% 30.00 in 10.0 mi SSE 17.3 mph 20.7 mph N/A   Overcast
7:55 AM 71.6 °F - 66.9 °F 85% 30.00 in 10.0 mi SSE 13.8 mph 21.9 mph N/A   Overcast
8:15 AM 72.0 °F - 67.1 °F 85% 30.01 in 10.0 mi SSE 13.8 mph 19.6 mph N/A   Overcast
8:35 AM 72.3 °F - 66.9 °F 83% 30.01 in 10.0 mi SSE 16.1 mph 23.0 mph N/A   Overcast
8:55 AM 72.7 °F - 66.9 °F 82% 30.03 in 10.0 mi SSE 17.3 mph 24.2 mph N/A   Overcast
9:15 AM 73.4 °F - 67.1 °F 81% 30.03 in 10.0 mi SSE 16.1 mph - N/A   Overcast
9:35 AM 73.9 °F - 67.1 °F 79% 30.04 in 10.0 mi SSE 9.2 mph - N/A   Overcast
9:55 AM 75.2 °F - 66.9 °F 75% 30.04 in 10.0 mi South 13.8 mph 18.4 mph N/A   Overcast
10:15 AM 75.9 °F - 67.1 °F 74% 30.04 in 10.0 mi SSE 13.8 mph - N/A   Overcast
10:35 AM 77.4 °F - 67.1 °F 71% 30.05 in 10.0 mi South 11.5 mph 17.3 mph N/A   Overcast
10:55 AM 79.3 °F - 66.4 °F 64% 30.05 in 10.0 mi South 11.5 mph 17.3 mph N/A   Mostly Cloudy
11:15 AM 80.1 °F 82.1 °F 66.2 °F 62% 30.06 in - South 13.8 mph 19.6 mph N/A   Mostly Cloudy
11:35 AM 80.2 °F 82.3 °F 66.2 °F 62% 30.06 in 10.0 mi South 15.0 mph 21.9 mph N/A   Scattered Clouds
11:55 AM 81.5 °F 83.9 °F 66.9 °F 61% 30.06 in 10.0 mi SSE 16.1 mph - N/A   Scattered Clouds
12:15 PM 82.4 °F 84.8 °F 66.7 °F 59% 30.05 in 10.0 mi SSE 16.1 mph 21.9 mph N/A   Scattered Clouds
12:35 PM 82.6 °F 84.7 °F 65.8 °F 57% 30.05 in 10.0 mi South 16.1 mph 21.9 mph N/A   Clear
12:55 PM 83.5 °F 85.3 °F 65.3 °F 54% 30.05 in 10.0 mi South 15.0 mph 19.6 mph N/A   Clear
1:15 PM 84.4 °F 85.6 °F 64.0 °F 50% 30.04 in 10.0 mi South 13.8 mph 21.9 mph N/A   Scattered Clouds
1:35 PM 84.6 °F 84.8 °F 60.8 °F 45% 30.03 in 10.0 mi South 10.4 mph - N/A   Clear
1:55 PM 85.3 °F 85.0 °F 60.1 °F 42% 30.03 in 10.0 mi SSW 10.4 mph 18.4 mph N/A   Clear
2:15 PM 85.3 °F 85.0 °F 59.9 °F 42% 30.01 in 10.0 mi South 8.1 mph 16.1 mph N/A   Clear
2:35 PM 86.5 °F 86.1 °F 59.9 °F 40% 30.01 in 10.0 mi South 9.2 mph - N/A   Clear
2:55 PM 87.1 °F 86.5 °F 59.5 °F 39% 30.00 in 10.0 mi SSW 12.7 mph 19.6 mph N/A   Clear
3:15 PM 87.6 °F 87.2 °F 59.9 °F 39% 30.00 in 10.0 mi SSW 13.8 mph 19.6 mph N/A   Clear
3:35 PM 87.3 °F 86.5 °F 58.6 °F 38% 29.99 in 10.0 mi South 13.8 mph 20.7 mph N/A   Clear
3:55 PM 87.8 °F 86.9 °F 58.6 °F 37% 29.99 in 10.0 mi South 12.7 mph - N/A   Clear
4:15 PM 88.0 °F 86.9 °F 57.9 °F 36% 29.98 in 10.0 mi South 11.5 mph 16.1 mph N/A   Clear
4:35 PM 88.5 °F 87.5 °F 58.1 °F 36% 29.98 in 10.0 mi South 9.2 mph 17.3 mph N/A   Clear
4:55 PM 88.7 °F 87.5 °F 58.1 °F 35% 29.97 in 10.0 mi South 9.2 mph - N/A   Clear
5:15 PM 89.8 °F 88.9 °F 58.6 °F 35% 29.96 in 10.0 mi South 10.4 mph 19.6 mph N/A   Clear
5:35 PM 88.0 °F 87.4 °F 59.7 °F 38% 29.96 in 10.0 mi SSW 15.0 mph 21.9 mph N/A   Clear
5:55 PM 87.6 °F 87.7 °F 61.2 °F 41% 29.96 in 10.0 mi South 17.3 mph 23.0 mph N/A   Clear
6:15 PM 86.9 °F 87.0 °F 61.2 °F 42% 29.95 in 10.0 mi South 13.8 mph 20.7 mph N/A   Clear
6:35 PM 86.2 °F 86.8 °F 62.4 °F 45% 29.95 in 10.0 mi South 13.8 mph 21.9 mph N/A   Clear
6:55 PM 85.3 °F 85.4 °F 61.3 °F 44% 29.94 in 10.0 mi SSE 17.3 mph 24.2 mph N/A   Clear
7:15 PM 84.7 °F 84.6 °F 59.7 °F 43% 29.94 in - South 12.7 mph 19.6 mph N/A   Clear
7:35 PM 84.2 °F 84.0 °F 59.4 °F 43% 29.94 in 10.0 mi South 13.8 mph - N/A   Clear
7:55 PM 83.3 °F 83.5 °F 60.4 °F 46% 29.94 in 10.0 mi South 11.5 mph 19.6 mph N/A   Clear
8:15 PM 81.1 °F 82.0 °F 61.2 °F 51% 29.94 in 10.0 mi South 10.4 mph - N/A   Clear
8:35 PM 79.7 °F - 62.1 °F 55% 29.95 in 10.0 mi South 9.2 mph - N/A   Clear
8:55 PM 78.4 °F - 62.4 °F 58% 29.95 in 10.0 mi SSE 9.2 mph - N/A   Clear
9:15 PM 78.3 °F - 62.8 °F 59% 29.96 in 10.0 mi South 9.2 mph - N/A   Clear
9:35 PM 78.1 °F - 63.0 °F 60% 29.96 in 10.0 mi South 9.2 mph - N/A   Clear
9:55 PM 77.7 °F - 63.7 °F 62% 29.97 in 10.0 mi South 10.4 mph - N/A   Clear
10:15 PM 77.2 °F - 64.2 °F 64% 29.97 in 10.0 mi South 10.4 mph - N/A   Clear
10:35 PM 76.6 °F - 64.6 °F 66% 29.98 in 10.0 mi South 11.5 mph 17.3 mph N/A   Clear
10:55 PM 75.7 °F - 63.7 °F 66% 29.99 in 10.0 mi South 12.7 mph 18.4 mph N/A   Clear
11:15 PM 75.2 °F - 63.5 °F 67% 29.99 in 10.0 mi South 12.7 mph 23.0 mph N/A   Clear
11:35 PM 74.3 °F - 63.7 °F 69% 30.00 in 10.0 mi South 9.2 mph - N/A   Clear
11:55 PM 73.4 °F - 64.4 °F 73% 29.99 in 10.0 mi South 6.9 mph - N/A   Clear